This demonstration page uses our WeatherBlox Daily Observations layout. Learn more.

Left ArrowRight Arrow

Hourly Observations for January 4, 2022

Temp ( °F °C ) Dew Point ( °F °C ) Humidity (%) Winds ( mph kmh ) Pressure ( in mb ) Visibility ( mi km ) Precip ( " mm )
12:30 am 00:30 Cloudy 0 -17.8 -8 -22.2 69 69 WNW 13 20 30.06 1018 10 16 0.00 0.00
12:46 am 00:46 Cloudy with Light Snow -1 -18.3 -8 -22.2 72 72 NW 16 26 30.08 1019 4 6 0.00 0.00
12:53 am 00:53 Windy with Snow Likely -1 -18.3 -8 -22.2 72 72 NW 21 33 29.93 1014 3 4 0.00 0.00
1:04 am 01:04 Cloudy with Light Snow -2 -18.9 -7 -21.7 79 79 NW 12 19 30.09 1019 2 3 0.00 0.00
1:14 am 01:14 Cloudy with Light Snow -2 -18.9 -8 -22.2 75 75 NW 13 20 30.09 1019 3 4 0.00 0.00
1:21 am 01:21 Cloudy with Light Snow -2 -18.9 -8 -22.2 75 75 NW 18 30 30.11 1019 5 8 0.00 0.00
1:53 am 01:53 Cloudy -2 -18.9 -10 -23.3 68 68 WNW 17 28 29.96 1015 10 16 0.00 0.00
2:53 am 02:53 Cloudy -4 -20 -12 -24.4 68 68 NW 12 19 30.02 1017 10 16 0.00 0.00
3:53 am 03:53 Cloudy -5 -20.6 -13 -25 68 68 NW 17 28 30.07 1018 10 16 0.00 0.00
4:53 am 04:53 Cloudy -6 -21.1 -14 -25.6 67 67 WNW 12 19 30.13 1020 10 16 0.00 0.00
5:53 am 05:53 Cloudy -7 -21.7 -16 -26.7 64 64 NW 20 31 30.19 1022 10 16 0.00 0.00
6:06 am 06:06 Cloudy -7 -21.7 -17 -27.2 61 61 NW 20 31 30.38 1029 10 16 0.00 0.00
6:53 am 06:53 Cloudy -8 -22.2 -18 -27.8 61 61 WNW 14 22 30.24 1024 10 16 0.00 0.00
7:53 am 07:53 Cloudy -9 -22.8 -18 -27.8 64 64 WNW 17 28 30.32 1027 10 16 0.00 0.00
8:07 am 08:07 Cloudy -9 -22.8 -18 -27.8 64 64 WNW 16 26 30.50 1033 10 16 0.00 0.00
8:53 am 08:53 Cloudy -9 -22.8 -18 -27.8 64 64 WNW 15 24 30.36 1028 10 16 0.00 0.00
9:53 am 09:53 Cloudy -9 -22.8 -19 -28.3 61 61 WNW 25 41 30.40 1030 10 16 0.00 0.00
10:53 am 10:53 Cloudy -9 -22.8 -18 -27.8 64 64 WNW 17 28 30.44 1031 10 16 0.00 0.00
11:53 am 11:53 Cloudy -8 -22.2 -18 -27.8 61 61 WNW 20 31 30.44 1031 10 16 0.00 0.00
12:40 pm 12:40 Windy with Snow Likely -8 -22.2 -17 -27.2 64 64 WNW 20 31 30.61 1037 2 3 0.00 0.00
12:53 pm 12:53 Windy with Snow Likely -8 -22.2 -16 -26.7 67 67 WNW 22 35 30.46 1032 3 4 0.00 0.00
1:10 pm 13:10 Cloudy with Light Snow -8 -22.2 -15 -26.1 71 71 WNW 17 28 30.62 1037 1 2 0.00 0.00
1:30 pm 13:30 Cloudy with Light Snow -8 -22.2 -15 -26.1 71 71 WNW 15 24 30.63 1037 2 3 0.00 0.00
1:45 pm 13:45 Cloudy with Light Snow -9 -22.8 -17 -27.2 67 67 WNW 16 26 30.64 1038 5 8 0.00 0.00
1:53 pm 13:53 Mostly Cloudy -9 -22.8 -19 -28.3 61 61 WNW 17 28 30.49 1032 9 14 0.00 0.00
2:07 pm 14:07 Mostly Cloudy -8 -22.2 -17 -27.2 64 64 WNW 17 28 30.63 1037 7 11 0.00 0.00
2:14 pm 14:14 Mostly Cloudy with Haze -8 -22.2 -16 -26.7 67 67 WNW 18 30 30.63 1037 4 6 0.00 0.00
2:27 pm 14:27 Mostly Cloudy -8 -22.2 -19 -28.3 58 58 WNW 21 33 30.64 1038 10 16 0.00 0.00
2:53 pm 14:53 Cloudy with Light Snow -8 -22.2 -17 -27.2 64 64 NW 17 28 30.50 1033 3 4 0.00 0.00
3:20 pm 15:20 Cloudy with Light Snow -8 -22.2 -16 -26.7 67 67 WNW 18 30 30.66 1038 2 2 0.00 0.00
3:42 pm 15:42 Cloudy with Light Snow -9 -22.8 -15 -26.1 75 75 WNW 16 26 30.68 1039 3 5 0.00 0.00
3:53 pm 15:53 Cloudy -8 -22.2 -16 -26.7 67 67 NW 18 30 30.53 1034 8 13 0.00 0.00
4:53 pm 16:53 Mostly Cloudy -10 -23.3 -19 -28.3 64 64 NW 17 28 30.57 1035 10 16 0.00 0.00
5:53 pm 17:53 Mostly Cloudy -12 -24.4 -20 -28.9 66 66 WNW 9 15 30.58 1036 10 16 0.00 0.00
6:53 pm 18:53 Clear -13 -25 -21 -29.4 67 67 WNW 6 9 30.60 1036 10 16 0.00 0.00
7:53 pm 19:53 Cloudy -12 -24.4 -20 -28.9 66 66 WNW 6 9 30.59 1036 10 16 0.00 0.00
8:53 pm 20:53 Cloudy -12 -24.4 -21 -29.4 63 63 WNW 13 20 30.59 1036 10 16 0.00 0.00
9:53 pm 21:53 Mostly Cloudy -14 -25.6 -22 -30 67 67 WNW 8 13 30.60 1036 10 16 0.00 0.00
10:53 pm 22:53 Cloudy -14 -25.6 -21 -29.4 71 71 WNW 5 7 30.59 1036 10 16 0.00 0.00
11:53 pm 23:53 Clear -17 -27.2 -24 -31.1 69 69 WNW 6 9 30.60 1036 10 16 0.00 0.00

Powered by AerisWeather